GFSSGP_prec_pwat_336.txt.gz
Precipitable_Water
1.81 1.82 1.76 1.55 0.89 0.82 0.70 0.78 0.98 0.95 0.99 1.16 1.22 1.18 1.22 1.29 1.11 0.88 1.61 1.97 2.11 2.12 2.11 2.06 2.06 2.05 2.00 1.98 1.91 1.72 1.76 1.76 1.65 1.60 1.65 1.61 1.59 1.60 1.64 1.64 1.75 1.80 1.80 1.78 1.80 1.86 1.92 1.97 1.93
1.82 1.67 1.58 1.14 0.74 0.59 0.68 0.89 0.89 1.02 1.14 1.24 1.20 1.19 1.11 1.01 1.25 1.34 1.50 1.94 2.04 2.01 1.95 1.95 1.94 1.95 1.96 1.93 1.90 1.88 1.83 1.79 1.74 1.63 1.64 1.61 1.61 1.58 1.65 1.68 1.71 1.79 1.79 1.86 1.89 1.95 1.94 1.98 1.97
1.80 1.64 1.13 0.83 0.71 0.59 0.65 0.86 0.94 1.10 1.21 1.20 1.10 1.18 1.08 1.04 1.29 1.39 1.62 1.78 1.85 1.87 1.88 1.84 1.83 1.82 1.87 1.87 1.88 1.85 1.77 1.79 1.70 1.67 1.69 1.65 1.61 1.62 1.69 1.72 1.71 1.77 1.85 1.85 1.91 2.02 2.06 2.02 2.02
1.52 1.42 1.00 0.69 0.62 0.73 0.77 0.87 1.01 1.07 1.19 1.26 1.16 0.93 1.13 1.34 1.33 1.42 1.63 1.68 1.73 1.80 1.88 1.90 1.86 1.85 1.82 1.84 1.83 1.82 1.85 1.82 1.78 1.73 1.71 1.72 1.68 1.74 1.80 1.82 1.82 1.85 1.92 1.93 1.97 2.00 2.04 2.07 2.09
1.42 1.13 0.76 0.60 0.62 0.76 0.81 0.86 0.96 0.98 1.08 1.15 1.18 0.94 0.96 1.30 1.42 1.47 1.57 1.64 1.63 1.68 1.74 1.80 1.83 1.86 1.87 1.90 1.90 1.92 1.91 1.89 1.91 1.84 1.82 1.84 1.86 1.94 1.92 1.95 2.01 2.01 2.04 2.05 2.05 2.04 2.04 2.09 2.09
1.04 0.96 0.71 0.64 0.64 0.76 0.86 0.90 0.86 0.89 1.00 1.04 1.01 0.92 1.00 1.36 1.34 1.39 1.49 1.50 1.62 1.61 1.76 1.84 1.82 1.88 1.82 1.74 1.75 1.82 1.93 1.98 1.83 1.81 1.84 1.88 1.97 1.99 1.98 1.99 2.08 2.05 2.07 2.05 2.04 2.05 2.06 2.13 2.08
0.98 0.79 0.68 0.74 0.76 0.72 0.79 0.91 0.80 0.79 0.84 0.88 1.02 0.86 1.07 1.21 1.35 1.41 1.37 1.43 1.53 1.64 1.71 1.77 1.86 1.72 1.75 1.82 1.86 1.94 1.80 1.79 1.96 1.93 1.89 1.81 1.82 1.89 2.02 2.03 2.06 2.08 2.14 2.10 2.02 2.10 2.11 2.06 2.03
1.05 0.92 0.71 0.71 0.70 0.76 0.90 0.83 0.83 0.83 0.81 1.02 1.05 0.80 0.84 1.16 1.32 1.34 1.35 1.39 1.48 1.55 1.64 1.74 1.83 1.82 1.76 1.78 1.91 1.79 1.87 1.94 1.90 1.93 1.95 1.98 1.98 1.98 2.06 1.99 2.03 2.09 2.16 2.16 2.11 2.07 2.04 2.06 2.00
1.17 0.81 0.70 0.68 0.70 0.77 1.01 0.95 0.95 0.88 0.84 0.98 1.02 0.93 1.07 1.24 1.30 1.30 1.29 1.33 1.40 1.46 1.55 1.69 1.70 1.71 1.72 1.74 1.78 1.81 1.82 1.88 1.90 1.90 1.87 1.86 2.01 1.92 1.92 2.07 2.21 2.32 2.31 2.13 2.04 2.04 2.04 2.04 2.01
1.01 0.77 0.76 0.90 0.86 0.81 0.89 1.00 0.94 0.85 0.84 0.90 0.96 1.07 1.14 1.18 1.15 1.17 1.18 1.20 1.31 1.40 1.57 1.72 1.73 1.72 1.70 1.75 1.86 1.96 1.95 2.09 2.03 2.13 2.19 2.17 2.11 2.02 2.10 2.22 2.27 2.38 2.26 2.23 1.98 1.96 2.12 1.97 2.06
1.00 0.80 0.93 0.91 0.91 0.97 0.93 0.94 0.99 0.98 0.86 0.80 0.83 0.92 1.05 1.08 1.07 1.07 1.12 1.20 1.27 1.47 1.67 1.78 1.81 1.78 1.70 1.73 1.85 1.92 2.01 2.14 2.15 2.15 2.17 2.21 2.17 2.18 2.28 2.33 2.37 2.37 2.32 2.28 2.07 2.07 2.04 2.12 1.96
0.92 1.04 0.97 0.96 1.03 0.98 0.93 1.02 0.92 0.96 0.98 0.96 0.94 0.93 1.00 1.02 1.03 1.02 1.05 1.15 1.29 1.42 1.59 1.72 1.82 1.79 1.76 1.76 1.80 1.87 1.87 2.00 2.07 2.14 2.17 2.21 2.21 2.28 2.23 2.14 2.08 2.06 2.13 1.88 1.78 1.75 1.93 2.19 1.94
0.96 0.99 1.04 1.03 1.06 1.04 1.05 0.96 0.96 0.95 1.00 1.00 1.01 0.98 1.03 1.05 1.09 1.15 1.19 1.20 1.29 1.33 1.47 1.60 1.72 1.73 1.73 1.75 1.75 1.76 1.77 1.83 1.95 2.05 2.12 2.17 2.18 2.06 2.11 1.93 1.91 1.81 1.83 1.75 1.78 1.80 1.94 2.09 2.18
0.99 0.98 0.98 1.04 1.04 1.03 0.96 0.97 0.96 0.98 1.08 0.88 0.97 1.02 1.13 1.13 1.13 1.15 1.21 1.23 1.33 1.36 1.35 1.47 1.58 1.65 1.68 1.67 1.69 1.71 1.78 1.85 1.91 2.00 2.07 2.12 2.14 2.12 2.11 2.02 1.84 1.85 1.86 1.82 1.86 1.89 1.87 1.92 2.02
0.95 0.84 0.91 0.95 0.97 0.94 1.02 0.87 0.90 1.03 1.03 0.93 0.89 0.99 1.12 1.21 1.24 1.20 1.23 1.27 1.40 1.46 1.36 1.44 1.54 1.64 1.68 1.69 1.71 1.78 1.80 1.82 1.89 1.95 2.09 2.21 2.18 2.06 2.02 2.03 1.95 1.92 1.79 1.71 1.70 1.82 1.98 2.03 1.98
0.77 0.78 0.70 0.81 0.88 0.93 0.91 0.73 0.96 1.11 0.99 0.87 0.99 1.03 1.00 1.13 1.28 1.37 1.40 1.41 1.49 1.50 1.36 1.45 1.51 1.57 1.67 1.67 1.72 1.75 1.77 1.88 1.87 1.99 2.17 2.26 2.21 2.13 2.17 2.02 1.88 1.85 1.72 1.54 1.58 1.70 1.85 1.90 1.92
0.67 0.60 0.62 0.66 0.82 0.87 0.85 0.79 1.00 1.15 1.08 0.93 0.94 1.05 1.08 1.11 1.20 1.31 1.43 1.48 1.50 1.51 1.46 1.44 1.46 1.50 1.57 1.63 1.67 1.67 1.72 1.71 1.82 1.89 2.09 2.21 2.24 2.14 2.10 1.95 1.87 1.80 1.76 1.65 1.61 1.57 1.73 1.80 2.03
0.54 0.56 0.62 0.58 0.72 0.78 0.75 0.77 0.94 1.08 1.08 1.01 0.98 1.01 1.06 1.11 1.15 1.28 1.37 1.46 1.55 1.55 1.58 1.54 1.53 1.54 1.61 1.62 1.63 1.60 1.63 1.69 1.84 1.88 2.06 2.19 2.20 2.09 2.05 1.96 1.85 1.80 1.74 1.70 1.64 1.48 1.40 1.81 2.09
0.58 0.56 0.55 0.59 0.66 0.74 0.72 0.74 0.85 0.99 1.08 1.01 1.01 1.00 1.04 1.10 1.21 1.30 1.34 1.41 1.45 1.55 1.57 1.56 1.56 1.61 1.62 1.60 1.50 1.46 1.47 1.58 1.74 1.89 2.06 2.13 2.12 2.05 2.04 2.02 1.98 1.82 1.76 1.73 1.66 1.55 1.44 1.50 1.95
0.53 0.51 0.51 0.58 0.66 0.65 0.67 0.67 0.80 0.91 0.94 1.04 1.05 1.06 1.05 1.09 1.19 1.24 1.27 1.31 1.35 1.44 1.55 1.59 1.58 1.63 1.63 1.60 1.58 1.56 1.55 1.62 1.68 1.84 1.99 2.04 2.07 1.91 1.97 1.98 1.91 1.81 1.74 1.71 1.63 1.46 1.49 1.50 1.53
0.49 0.48 0.50 0.46 0.53 0.64 0.54 0.59 0.67 0.83 0.94 1.03 1.07 1.14 1.16 1.12 1.11 1.20 1.23 1.21 1.27 1.33 1.46 1.57 1.63 1.64 1.64 1.65 1.67 1.64 1.62 1.60 1.60 1.72 1.86 1.93 2.04 1.97 2.04 2.02 1.98 1.86 1.77 1.70 1.62 1.53 1.46 1.42 1.50
0.46 0.54 0.48 0.45 0.44 0.38 0.49 0.50 0.59 0.71 0.77 0.88 0.99 1.05 1.09 1.15 1.15 1.19 1.24 1.14 1.19 1.26 1.43 1.53 1.62 1.64 1.66 1.68 1.61 1.58 1.49 1.41 1.54 1.66 1.79 1.96 2.09 2.01 2.05 2.05 2.02 1.83 1.73 1.70 1.59 1.56 1.55 1.37 1.37
0.47 0.50 0.46 0.43 0.40 0.39 0.46 0.44 0.65 0.63 0.66 0.74 0.88 0.98 1.05 1.08 1.11 1.12 1.18 1.22 1.19 1.30 1.34 1.44 1.55 1.59 1.62 1.62 1.60 1.61 1.57 1.59 1.60 1.68 1.80 1.91 2.01 2.04 2.02 1.99 1.94 1.89 1.75 1.68 1.60 1.53 1.53 1.41 1.24
0.48 0.45 0.42 0.44 0.39 0.30 0.41 0.45 0.49 0.59 0.60 0.64 0.78 0.91 0.94 0.96 1.03 1.10 1.17 1.21 1.18 1.27 1.37 1.42 1.44 1.55 1.62 1.62 1.64 1.61 1.56 1.54 1.57 1.59 1.66 1.82 1.94 1.97 1.97 1.93 1.91 1.89 1.87 1.78 1.65 1.57 1.50 1.49 1.31
0.28 0.23 0.22 0.25 0.31 0.26 0.44 0.41 0.49 0.58 0.56 0.55 0.60 0.78 0.87 0.94 0.99 1.09 1.10 1.13 1.15 1.19 1.27 1.42 1.45 1.50 1.57 1.58 1.60 1.63 1.65 1.62 1.55 1.57 1.66 1.72 1.80 1.82 1.85 1.87 1.83 1.84 1.88 1.87 1.79 1.65 1.57 1.46 1.30
0.17 0.21 0.19 0.22 0.28 0.27 0.39 0.33 0.47 0.53 0.55 0.58 0.65 0.80 0.86 0.90 0.99 1.06 1.08 1.13 1.16 1.25 1.32 1.41 1.47 1.51 1.62 1.55 1.56 1.63 1.66 1.63 1.57 1.61 1.69 1.67 1.75 1.76 1.83 1.84 1.85 1.85 1.86 1.88 1.87 1.71 1.57 1.47 1.27
0.19 0.19 0.25 0.24 0.29 0.26 0.30 0.37 0.42 0.47 0.54 0.56 0.74 0.79 0.82 0.89 0.97 1.01 1.14 1.28 1.33 1.29 1.32 1.42 1.49 1.62 1.69 1.73 1.67 1.66 1.71 1.64 1.57 1.64 1.76 1.69 1.74 1.77 1.82 1.86 1.86 1.88 1.86 1.82 1.84 1.75 1.60 1.47 1.42
0.21 0.23 0.19 0.21 0.20 0.22 0.25 0.27 0.29 0.39 0.41 0.56 0.70 0.74 0.82 0.92 0.98 1.06 1.19 1.29 1.40 1.43 1.40 1.45 1.57 1.69 1.74 1.77 1.83 1.69 1.61 1.71 1.68 1.65 1.66 1.69 1.69 1.78 1.82 1.89 1.88 1.88 1.90 1.86 1.79 1.66 1.64 1.51 1.49
0.17 0.19 0.21 0.26 0.26 0.23 0.23 0.25 0.30 0.34 0.42 0.54 0.71 0.78 0.85 0.88 0.99 1.08 1.22 1.34 1.46 1.52 1.44 1.45 1.61 1.71 1.73 1.76 1.71 1.72 1.59 1.63 1.66 1.63 1.64 1.70 1.74 1.76 1.80 1.86 1.91 1.90 1.92 1.94 1.85 1.79 1.66 1.52 1.44
0.22 0.20 0.22 0.21 0.24 0.22 0.20 0.21 0.29 0.42 0.57 0.65 0.73 0.76 0.92 0.96 1.00 1.08 1.21 1.30 1.41 1.51 1.47 1.47 1.56 1.60 1.60 1.47 1.31 1.52 1.34 1.59 1.55 1.60 1.64 1.69 1.70 1.78 1.79 1.84 1.89 1.91 1.94 2.00 1.96 1.89 1.86 1.75 1.61

GFSSGP_prec_pwat_339.txt.gz
Precipitable_Water
1.72 1.91 1.96 1.79 1.14 0.91 0.79 0.84 0.99 0.93 0.97 1.27 1.43 1.28 1.19 1.39 1.21 1.09 1.74 1.91 2.05 2.10 2.12 2.13 2.04 1.98 1.76 1.72 1.74 1.69 1.66 1.65 1.63 1.58 1.58 1.65 1.66 1.67 1.68 1.79 1.75 1.75 1.72 1.76 1.82 1.93 2.02 1.97 1.96
1.80 1.87 1.93 1.54 0.88 0.76 0.79 1.02 0.94 1.03 1.08 1.20 1.19 1.21 1.10 1.07 1.33 1.52 1.72 1.96 2.06 2.07 2.10 2.09 2.01 2.01 1.99 1.77 1.72 1.74 1.75 1.64 1.64 1.61 1.61 1.69 1.64 1.63 1.67 1.74 1.81 1.79 1.79 1.84 1.89 1.91 1.97 1.98 1.93
1.71 1.78 1.33 0.85 0.77 0.72 0.75 0.97 1.03 1.14 1.22 1.08 0.99 1.14 1.10 1.12 1.37 1.62 1.80 1.98 2.08 2.04 2.05 1.98 1.99 1.97 1.96 1.94 1.88 1.88 1.84 1.76 1.65 1.60 1.60 1.67 1.66 1.69 1.71 1.76 1.79 1.85 1.82 1.86 1.91 2.01 2.01 2.01 1.97
1.74 1.71 1.25 0.76 0.69 0.78 0.85 0.98 1.11 1.12 1.17 1.11 0.97 0.89 1.17 1.41 1.38 1.60 1.83 1.91 1.75 1.75 1.79 1.83 1.86 1.85 1.90 1.90 1.91 1.84 1.81 1.75 1.72 1.68 1.68 1.70 1.72 1.77 1.84 1.88 1.87 1.86 1.87 1.90 1.97 2.00 2.08 2.07 2.05
1.72 1.38 0.72 0.70 0.72 0.78 0.85 1.02 1.09 1.07 1.10 1.14 0.94 0.86 0.97 1.33 1.47 1.55 1.63 1.70 1.95 1.77 1.82 1.87 1.86 1.84 1.90 1.91 1.91 1.91 1.84 1.79 1.78 1.74 1.78 1.78 1.86 1.91 1.97 2.04 2.03 2.00 2.01 2.00 2.02 2.03 2.06 2.06 2.06
1.25 1.10 0.75 0.62 0.70 0.79 0.83 0.92 0.98 1.03 1.06 1.08 0.96 0.90 0.98 1.29 1.36 1.50 1.60 1.66 1.66 1.70 1.79 1.80 1.86 1.88 1.91 1.94 1.95 1.95 1.91 1.91 1.90 1.92 1.95 1.97 2.05 2.04 2.09 2.10 2.08 2.01 2.00 2.03 2.03 2.04 2.08 2.09 2.06
1.03 0.85 0.77 0.77 0.70 0.71 0.79 0.91 0.86 0.89 0.94 0.93 0.98 0.91 1.05 1.18 1.31 1.44 1.53 1.55 1.61 1.75 1.73 1.72 1.81 1.91 1.82 1.83 1.95 1.94 1.95 1.95 1.96 1.89 1.89 1.90 1.96 1.96 2.05 2.16 2.12 2.11 2.15 2.02 2.08 2.09 2.07 2.09 2.08
1.20 0.88 0.74 0.78 0.78 0.69 0.76 0.82 0.92 0.92 0.85 1.02 1.08 0.87 0.92 1.19 1.37 1.36 1.42 1.47 1.58 1.68 1.74 1.90 1.79 1.75 1.84 1.87 1.89 1.87 1.85 1.89 1.98 1.94 1.98 1.98 1.99 1.96 2.03 2.08 2.17 2.19 2.14 2.15 2.05 2.07 2.09 2.08 2.02
1.33 0.81 0.67 0.71 0.74 0.86 1.01 0.75 0.81 0.97 0.91 0.98 1.07 0.98 1.13 1.26 1.31 1.28 1.30 1.41 1.49 1.60 1.67 1.71 1.88 1.77 1.85 1.86 1.84 1.76 1.93 1.92 1.90 1.85 1.88 1.87 2.22 2.06 2.06 2.24 2.25 2.21 2.15 2.04 2.00 2.04 2.01 2.06 1.98
1.02 0.74 0.73 0.87 0.85 0.82 0.98 0.90 0.82 0.81 0.87 0.89 0.93 1.08 1.16 1.18 1.20 1.16 1.18 1.24 1.33 1.43 1.60 1.69 1.74 1.69 1.72 1.86 1.78 2.00 1.98 2.02 2.18 2.25 2.07 2.20 2.00 2.08 2.31 2.30 2.25 2.30 2.18 2.13 1.95 1.99 2.03 2.00 2.05
0.95 0.78 0.87 0.86 0.95 0.96 0.92 0.92 1.08 1.06 0.84 0.85 0.88 0.98 1.07 1.09 1.15 1.18 1.21 1.26 1.36 1.47 1.65 1.79 1.75 1.76 1.72 1.82 1.96 1.97 2.09 2.17 2.13 2.18 2.23 2.28 2.25 2.44 2.51 2.45 2.37 2.28 2.31 2.13 2.02 1.92 2.09 2.04 2.01
0.90 0.94 0.93 0.97 0.98 0.98 0.99 1.01 0.90 0.92 0.95 0.95 0.94 1.01 1.04 1.04 1.08 1.12 1.19 1.27 1.40 1.52 1.69 1.78 1.79 1.71 1.84 1.84 1.91 1.93 2.03 2.10 2.18 2.20 2.20 2.29 2.38 2.31 2.20 2.05 1.93 2.03 2.00 1.87 1.99 1.96 1.95 2.16 2.05
0.98 0.94 0.95 1.00 0.99 1.00 1.01 0.94 0.90 0.91 0.89 1.03 0.99 0.97 0.96 1.02 1.07 1.12 1.20 1.27 1.37 1.46 1.65 1.73 1.85 1.76 1.81 1.79 1.87 1.87 1.86 1.93 2.02 2.14 2.20 2.38 2.22 2.10 2.14 2.01 2.25 1.81 1.94 1.92 1.95 1.86 1.89 2.15 2.12
0.98 0.99 0.96 1.01 0.99 0.99 0.97 0.92 0.92 0.95 0.92 0.87 0.96 0.99 1.02 1.00 1.03 1.11 1.16 1.19 1.30 1.39 1.47 1.59 1.67 1.72 1.75 1.73 1.78 1.77 1.88 1.94 1.97 2.03 2.20 2.15 2.30 2.12 2.15 2.05 1.96 1.92 1.91 1.81 1.92 1.92 2.05 1.95 2.04
0.94 0.86 0.92 0.94 0.97 0.90 1.13 0.89 0.92 0.95 0.90 0.89 0.86 1.02 1.12 1.18 1.18 1.11 1.17 1.18 1.31 1.35 1.37 1.49 1.59 1.64 1.67 1.72 1.78 1.87 1.76 1.83 1.90 1.99 2.11 2.21 2.15 2.12 2.11 2.03 2.03 2.08 1.70 1.65 1.72 1.86 1.99 2.17 2.05
0.80 0.84 0.79 0.82 0.88 0.89 1.04 0.82 0.99 1.05 0.86 0.84 0.93 1.01 1.02 1.16 1.20 1.22 1.26 1.29 1.40 1.36 1.29 1.44 1.55 1.62 1.68 1.73 1.81 1.84 1.97 1.91 1.92 2.08 2.24 2.25 2.24 2.14 2.17 2.08 1.94 1.88 1.85 1.57 1.51 1.72 1.87 1.85 1.93
0.71 0.67 0.67 0.74 0.86 0.89 0.93 0.83 1.00 1.11 0.96 0.87 0.92 1.00 1.05 1.10 1.20 1.27 1.34 1.41 1.47 1.48 1.34 1.41 1.49 1.55 1.61 1.70 1.78 1.81 1.81 1.85 1.86 1.98 2.24 2.32 2.23 2.25 2.09 2.06 2.06 1.77 1.79 1.72 1.72 1.69 1.82 1.95 2.11
0.55 0.62 0.60 0.62 0.79 0.77 0.78 0.82 0.96 1.08 1.05 0.90 0.94 1.02 1.04 1.11 1.19 1.28 1.33 1.42 1.50 1.52 1.45 1.46 1.48 1.56 1.61 1.67 1.69 1.73 1.76 1.76 1.86 1.94 2.15 2.28 2.31 2.14 2.12 1.97 1.87 1.87 1.73 1.76 1.71 1.52 1.54 1.94 2.15
0.57 0.57 0.57 0.59 0.63 0.76 0.75 0.83 0.89 0.97 1.05 1.00 0.94 0.97 1.05 1.13 1.25 1.33 1.35 1.39 1.44 1.52 1.51 1.50 1.47 1.53 1.58 1.55 1.53 1.53 1.55 1.64 1.79 1.98 2.02 2.15 2.21 2.13 2.01 2.26 1.96 1.82 1.80 1.80 1.60 1.58 1.53 1.85 2.08
0.55 0.55 0.61 0.56 0.60 0.61 0.70 0.69 0.93 0.94 0.97 1.03 1.02 1.00 1.03 1.08 1.23 1.31 1.36 1.39 1.40 1.44 1.53 1.59 1.57 1.59 1.58 1.63 1.62 1.61 1.61 1.74 1.90 1.95 1.96 2.12 2.16 2.03 2.02 1.99 1.96 1.84 1.91 1.64 1.65 1.60 1.59 1.56 1.67
0.53 0.52 0.59 0.52 0.52 0.53 0.57 0.54 0.77 0.90 0.95 1.02 1.07 1.12 1.09 1.08 1.09 1.23 1.32 1.34 1.39 1.44 1.48 1.57 1.65 1.66 1.66 1.69 1.70 1.65 1.69 1.70 1.55 1.66 1.87 2.02 2.12 2.06 2.10 2.07 2.08 1.91 1.72 1.92 1.66 1.56 1.57 1.51 1.45
0.48 0.56 0.54 0.47 0.41 0.45 0.54 0.40 0.71 0.91 0.84 0.87 0.96 1.07 1.12 1.11 1.10 1.15 1.28 1.32 1.38 1.44 1.54 1.60 1.67 1.69 1.74 1.74 1.72 1.65 1.57 1.47 1.54 1.63 1.86 1.98 2.15 2.10 2.13 2.06 2.07 1.86 1.85 1.83 1.67 1.61 1.66 1.60 1.38
0.50 0.61 0.54 0.49 0.39 0.38 0.39 0.38 0.75 0.85 0.82 0.78 0.89 0.99 1.09 1.14 1.11 1.13 1.22 1.32 1.34 1.45 1.50 1.58 1.64 1.68 1.71 1.71 1.71 1.69 1.61 1.60 1.61 1.62 1.83 1.83 2.12 2.12 2.09 2.09 2.09 2.01 1.86 1.80 1.77 1.64 1.59 1.53 1.47
0.51 0.50 0.48 0.43 0.40 0.32 0.35 0.40 0.69 0.90 0.85 0.80 0.86 0.93 1.01 1.06 1.13 1.16 1.21 1.30 1.24 1.26 1.38 1.49 1.54 1.61 1.67 1.68 1.70 1.66 1.66 1.61 1.64 1.67 1.72 1.78 2.05 2.13 2.03 1.99 2.00 2.01 1.94 1.82 1.74 1.64 1.56 1.60 1.46
0.37 0.38 0.31 0.31 0.31 0.29 0.38 0.41 0.57 0.75 0.79 0.61 0.63 0.78 0.91 1.06 1.10 1.11 1.13 1.14 1.19 1.16 1.25 1.38 1.52 1.55 1.65 1.64 1.63 1.64 1.66 1.65 1.59 1.65 1.65 1.71 1.85 1.79 2.01 1.92 1.87 1.96 1.97 1.94 1.86 1.73 1.68 1.57 1.39
0.24 0.27 0.23 0.21 0.24 0.29 0.45 0.33 0.37 0.73 0.66 0.62 0.54 0.73 0.85 0.96 1.05 1.11 1.16 1.14 1.14 1.14 1.22 1.31 1.43 1.48 1.62 1.64 1.64 1.68 1.68 1.70 1.67 1.61 1.62 1.75 1.73 1.89 1.97 1.92 1.93 1.92 1.93 1.94 1.92 1.84 1.66 1.63 1.43
0.16 0.16 0.20 0.22 0.26 0.29 0.37 0.50 0.41 0.51 0.53 0.59 0.67 0.78 0.81 0.87 0.96 1.10 1.22 1.28 1.35 1.30 1.34 1.33 1.40 1.50 1.60 1.69 1.72 1.70 1.66 1.62 1.62 1.60 1.70 1.73 1.75 1.78 1.78 1.84 1.89 2.00 1.94 1.89 1.86 1.82 1.71 1.57 1.42
0.17 0.25 0.17 0.20 0.20 0.24 0.27 0.28 0.32 0.45 0.46 0.58 0.69 0.78 0.83 0.89 0.96 1.08 1.16 1.29 1.42 1.48 1.51 1.51 1.44 1.49 1.63 1.71 1.73 1.63 1.67 1.59 1.64 1.66 1.66 1.72 1.78 1.76 1.81 1.86 1.91 1.92 1.98 1.95 1.87 1.76 1.67 1.57 1.48
0.15 0.18 0.20 0.22 0.22 0.20 0.25 0.31 0.42 0.39 0.42 0.48 0.72 0.81 0.88 0.92 0.97 1.05 1.16 1.32 1.43 1.54 1.62 1.63 1.57 1.54 1.63 1.64 1.60 1.73 1.80 1.70 1.66 1.65 1.63 1.69 1.73 1.75 1.78 1.86 1.91 1.93 1.94 2.00 1.95 1.87 1.84 1.68 1.51
0.20 0.17 0.20 0.19 0.22 0.28 0.26 0.25 0.35 0.37 0.46 0.60 0.77 0.80 0.89 0.96 1.01 1.05 1.17 1.30 1.43 1.53 1.59 1.57 1.58 1.57 1.63 1.68 1.63 1.58 1.77 1.76 1.64 1.63 1.65 1.73 1.71 1.80 1.79 1.82 1.85 1.89 1.93 1.97 1.97 1.93 1.90 1.85 1.75

GFSSGP_prec_pwat_342.txt.gz
Precipitable_Water
1.93 2.10 2.24 1.97 1.18 0.95 0.97 0.94 1.01 1.07 1.15 1.24 1.35 1.43 1.35 1.37 1.26 1.13 1.84 1.99 2.10 2.10 2.04 1.87 1.76 1.81 1.79 1.71 1.71 1.67 1.61 1.56 1.54 1.56 1.56 1.69 1.75 1.77 1.79 1.73 1.74 1.73 1.78 1.90 1.99 1.99 1.93 1.93 1.79
2.07 2.20 2.16 1.71 0.96 0.79 0.93 0.96 0.82 0.99 1.06 1.24 1.12 1.24 1.26 1.22 1.49 1.57 1.71 1.95 2.07 2.03 2.04 1.95 1.87 1.75 1.74 1.75 1.69 1.66 1.65 1.60 1.57 1.57 1.54 1.62 1.70 1.72 1.73 1.84 1.79 1.77 1.82 1.87 2.00 2.04 1.98 1.91 1.81
1.97 2.08 1.66 1.27 0.84 0.74 0.77 0.92 1.10 1.08 1.08 1.01 0.98 1.14 1.17 1.19 1.46 1.55 1.78 2.00 2.03 2.10 2.05 1.99 2.01 1.96 1.77 1.74 1.75 1.75 1.66 1.62 1.62 1.62 1.58 1.60 1.66 1.73 1.77 1.80 1.84 1.77 1.84 1.94 2.01 2.07 2.02 1.95 1.87
1.82 1.79 1.58 0.75 0.71 0.86 0.94 1.02 1.03 1.19 1.05 1.00 0.96 0.99 1.26 1.53 1.53 1.67 1.91 1.97 1.99 2.06 2.01 1.95 1.96 1.96 1.92 1.86 1.89 1.83 1.80 1.71 1.66 1.64 1.63 1.64 1.72 1.81 1.83 1.81 1.87 1.86 1.87 1.91 2.03 2.08 2.08 2.03 1.97
1.79 1.55 0.75 0.71 0.71 0.86 1.01 1.04 1.24 1.06 1.06 0.95 0.98 0.91 1.10 1.42 1.53 1.64 1.81 1.84 1.75 1.70 1.74 1.78 1.85 1.89 1.89 1.85 1.83 1.78 1.80 1.78 1.74 1.73 1.70 1.75 1.85 1.94 1.97 1.94 2.01 2.01 2.01 2.00 2.02 2.07 2.07 2.04 1.98
1.25 1.19 0.69 0.64 0.70 0.78 0.87 1.07 1.10 1.10 1.09 1.00 0.91 0.88 1.00 1.31 1.46 1.60 1.75 1.84 1.80 1.66 1.78 1.75 1.84 1.90 1.89 1.88 1.91 1.91 1.89 1.87 1.82 1.84 1.89 2.01 2.06 2.10 2.06 2.06 2.03 2.06 2.05 2.09 2.06 2.05 2.13 2.05 2.01
1.31 1.03 0.75 0.66 0.66 0.72 0.84 0.98 0.95 0.96 1.01 0.92 1.02 0.84 1.00 1.16 1.37 1.57 1.76 1.62 1.73 1.70 1.71 1.74 1.78 1.82 1.89 1.88 1.93 1.93 1.91 1.87 1.86 1.88 1.88 1.95 1.96 2.00 2.09 2.13 2.12 2.11 2.15 2.01 2.08 2.08 2.09 2.05 2.07
1.18 1.01 0.81 0.80 0.67 0.58 0.80 0.89 1.00 0.95 0.85 1.02 1.11 0.84 0.83 1.11 1.37 1.50 1.50 1.69 1.76 1.67 1.62 1.67 1.73 1.73 1.74 1.90 1.86 1.87 1.87 1.95 1.91 1.90 1.87 1.84 1.90 1.93 2.01 2.16 2.18 2.09 2.05 2.10 2.03 2.10 2.05 2.01 2.04
1.27 0.70 0.67 0.76 0.78 0.83 0.78 0.73 0.94 0.99 0.93 1.05 1.15 1.08 1.11 1.24 1.29 1.29 1.28 1.43 1.50 1.61 1.69 1.69 1.70 1.79 1.87 1.83 1.73 1.86 1.89 1.91 1.88 1.86 1.84 2.00 2.15 2.12 2.25 2.24 2.15 2.10 2.05 1.97 2.04 2.04 2.05 2.02 2.01
0.94 0.68 0.81 0.86 0.88 0.91 0.87 0.77 0.84 0.86 0.92 0.92 0.99 1.11 1.16 1.24 1.24 1.24 1.24 1.29 1.38 1.44 1.65 1.77 1.85 1.78 1.95 1.93 1.80 1.83 1.91 1.98 2.10 2.16 1.94 2.11 2.22 2.34 2.46 2.42 2.25 2.19 2.14 1.98 1.95 1.99 1.98 2.01 2.00
0.90 0.69 0.79 0.91 0.94 0.92 0.86 0.96 1.12 1.08 0.86 0.87 0.93 0.99 1.06 1.12 1.14 1.16 1.25 1.29 1.32 1.52 1.78 1.83 1.82 1.72 1.84 1.95 1.97 2.09 2.09 2.12 2.18 2.10 2.18 2.28 2.44 2.34 2.21 2.27 2.12 2.15 2.09 1.88 1.85 1.82 2.06 2.01 2.12
0.86 0.84 0.84 0.84 0.90 1.07 0.87 0.94 0.86 1.03 1.00 0.95 1.03 1.05 1.06 1.06 1.11 1.15 1.21 1.32 1.43 1.45 1.73 1.83 1.82 1.76 1.86 1.89 1.98 2.05 2.04 2.05 2.14 2.19 2.19 2.39 2.33 2.32 2.11 2.15 1.90 1.73 1.73 1.79 1.82 1.84 2.09 2.17 2.09
0.91 0.84 0.86 0.91 0.97 0.94 0.95 0.87 0.86 0.79 0.93 1.03 1.05 1.01 1.02 1.10 1.17 1.26 1.32 1.38 1.48 1.54 1.65 1.76 1.79 1.65 1.83 1.75 1.88 1.89 1.90 1.99 2.05 2.21 2.18 2.21 2.21 2.08 2.06 2.06 2.08 2.07 2.15 2.40 2.17 1.92 1.90 2.11 2.09
0.98 0.92 0.90 0.93 0.90 1.04 0.87 0.81 0.82 0.78 0.90 0.90 0.99 1.01 1.03 1.04 1.12 1.18 1.25 1.31 1.40 1.53 1.63 1.73 1.77 1.67 1.73 1.70 1.76 1.78 1.86 1.92 2.05 2.02 2.16 2.14 2.17 2.07 2.06 2.13 2.01 2.03 1.93 1.85 1.76 1.85 2.11 2.05 2.05
0.95 0.89 0.94 0.90 0.90 1.01 0.99 0.97 0.85 0.79 0.85 0.84 0.87 0.99 1.05 1.09 1.10 1.08 1.14 1.21 1.36 1.46 1.51 1.56 1.64 1.63 1.61 1.65 1.70 1.77 1.80 1.89 1.92 2.06 2.19 2.23 2.21 2.16 2.01 2.01 2.10 2.25 1.71 1.58 1.71 1.87 2.10 2.17 2.13
0.99 1.07 0.90 0.87 0.86 0.98 1.03 0.88 0.93 0.91 0.81 0.80 0.90 0.95 0.99 1.07 1.12 1.18 1.23 1.24 1.33 1.37 1.38 1.50 1.62 1.58 1.64 1.69 1.78 1.78 2.23 1.94 1.97 2.04 2.24 2.25 2.16 2.09 2.06 1.98 1.96 1.72 1.97 1.76 1.69 1.75 1.92 2.02 2.05
0.91 0.80 0.75 0.75 0.83 0.88 1.01 0.87 0.95 0.97 0.87 0.80 0.87 1.01 1.04 1.10 1.12 1.16 1.24 1.29 1.41 1.41 1.37 1.41 1.60 1.57 1.60 1.68 1.73 1.77 1.99 2.00 1.84 2.07 2.31 2.00 2.21 2.14 2.13 2.19 1.89 1.74 1.77 1.81 1.75 1.74 1.79 1.99 2.11
0.80 0.88 0.73 0.68 0.73 0.75 0.76 0.91 0.93 0.97 0.91 0.85 0.88 0.97 1.02 1.10 1.10 1.14 1.21 1.32 1.46 1.47 1.38 1.48 1.53 1.69 1.64 1.67 1.66 1.65 1.70 1.67 1.94 2.13 2.12 2.10 2.48 2.12 2.34 2.12 1.62 1.80 1.79 1.64 1.67 1.52 1.64 2.07 2.20
0.77 0.76 0.66 0.58 0.57 0.72 0.85 0.79 0.91 0.93 0.94 0.90 0.95 0.97 0.97 1.09 1.25 1.30 1.31 1.39 1.42 1.49 1.39 1.45 1.43 1.62 1.60 1.58 1.45 1.41 1.51 1.67 1.81 2.33 2.09 2.12 2.24 2.08 1.96 2.52 1.82 1.87 2.00 1.62 1.57 1.47 1.46 1.79 2.03
0.69 0.63 0.76 0.69 0.63 0.61 0.81 0.78 0.97 1.01 0.99 1.01 0.98 1.03 1.03 1.08 1.19 1.31 1.36 1.38 1.43 1.42 1.43 1.47 1.49 1.51 1.53 1.53 1.59 1.54 1.73 1.92 1.72 1.95 2.03 2.10 2.15 1.97 2.15 2.05 1.94 1.95 1.96 1.70 1.45 1.59 1.59 1.52 1.74
0.57 0.56 0.62 0.69 0.58 0.49 0.54 0.66 0.97 1.17 1.14 1.10 1.05 1.08 1.11 1.09 1.15 1.26 1.32 1.41 1.44 1.47 1.45 1.49 1.55 1.60 1.58 1.72 1.67 1.59 1.69 1.76 1.65 1.51 1.87 2.01 2.19 2.00 2.06 1.97 1.95 1.89 1.69 1.89 1.70 1.59 1.69 1.54 1.62
0.50 0.57 0.52 0.52 0.43 0.36 0.65 0.51 0.72 0.87 0.97 0.97 1.04 1.09 1.10 1.11 1.14 1.24 1.33 1.33 1.43 1.51 1.58 1.57 1.58 1.62 1.63 1.72 1.75 1.56 1.39 1.37 1.53 1.64 1.98 2.01 2.12 2.03 2.05 1.96 1.98 1.81 1.92 1.86 1.63 1.46 1.65 1.71 1.54
0.49 0.57 0.59 0.52 0.44 0.37 0.40 0.45 0.67 0.74 0.70 0.85 1.00 1.12 1.15 1.13 1.15 1.16 1.26 1.33 1.34 1.44 1.55 1.59 1.61 1.63 1.63 1.58 1.61 1.67 1.55 1.62 1.71 1.66 1.82 1.98 1.97 2.00 1.93 1.99 1.93 1.91 1.89 1.84 1.67 1.59 1.49 1.66 1.61
0.43 0.49 0.51 0.47 0.40 0.30 0.36 0.43 0.68 0.75 0.74 0.81 1.01 1.10 1.12 1.17 1.16 1.14 1.21 1.28 1.28 1.36 1.43 1.56 1.58 1.59 1.66 1.66 1.55 1.61 1.57 1.53 1.71 1.63 1.68 1.69 1.94 2.30 1.94 1.94 1.83 1.85 1.93 1.85 1.63 1.52 1.43 1.56 1.55
0.32 0.37 0.33 0.33 0.30 0.28 0.38 0.50 0.72 0.72 0.66 0.80 0.89 0.98 1.01 1.16 1.15 1.10 1.13 1.20 1.21 1.26 1.32 1.45 1.54 1.56 1.68 1.70 1.64 1.54 1.59 1.59 1.59 1.64 1.59 1.58 1.80 1.82 1.87 2.02 1.85 1.72 1.82 1.91 1.80 1.71 1.60 1.47 1.34
0.21 0.31 0.30 0.27 0.25 0.29 0.44 0.44 0.62 0.84 0.76 0.75 0.78 1.04 1.00 1.04 1.09 1.12 1.11 1.17 1.32 1.28 1.29 1.34 1.50 1.51 1.64 1.66 1.69 1.71 1.65 1.63 1.59 1.58 1.51 1.63 1.66 2.07 2.27 2.08 1.90 1.76 1.78 1.81 1.86 1.82 1.69 1.60 1.44
0.15 0.22 0.29 0.26 0.26 0.23 0.35 0.45 0.55 0.75 0.78 0.70 0.66 0.92 0.90 0.97 1.05 1.06 1.15 1.21 1.33 1.34 1.37 1.41 1.38 1.43 1.55 1.67 1.68 1.70 1.75 1.69 1.62 1.67 1.65 1.59 1.83 2.03 1.91 2.00 1.87 1.79 1.87 1.81 1.83 1.72 1.77 1.72 1.56
0.13 0.19 0.17 0.16 0.14 0.18 0.31 0.44 0.48 0.60 0.63 0.65 0.75 0.88 0.87 0.96 1.03 1.12 1.20 1.24 1.31 1.34 1.41 1.45 1.47 1.43 1.52 1.63 1.73 1.72 1.75 1.79 1.78 1.79 1.66 1.70 1.74 1.76 1.92 1.89 1.78 1.80 1.86 1.92 1.90 1.82 1.69 1.56 1.49
0.15 0.13 0.19 0.24 0.19 0.19 0.20 0.32 0.46 0.53 0.52 0.59 0.70 0.78 0.85 0.91 0.92 1.06 1.18 1.27 1.35 1.39 1.44 1.50 1.51 1.58 1.58 1.62 1.77 1.77 1.88 1.98 1.83 1.72 1.68 1.62 1.72 1.75 1.69 1.70 1.76 1.84 1.86 1.90 1.90 1.85 1.93 1.80 1.69
0.18 0.17 0.15 0.19 0.19 0.23 0.28 0.35 0.41 0.43 0.48 0.57 0.77 0.74 1.05 0.83 1.06 1.01 1.10 1.27 1.44 1.45 1.51 1.52 1.50 1.60 1.63 1.62 1.77 1.76 1.89 2.00 1.79 1.77 1.76 1.74 1.69 1.76 1.75 1.79 1.80 1.84 1.90 1.94 1.92 1.90 1.91 1.91 1.83

GFSSGP_prec_pwat_345.txt.gz
Precipitable_Water
2.10 2.18 2.26 1.94 1.13 1.08 0.80 0.81 0.97 0.98 1.05 1.31 1.43 1.34 1.27 1.36 1.21 1.09 1.89 1.97 1.93 1.72 1.78 1.78 1.80 1.71 1.68 1.57 1.52 1.50 1.53 1.57 1.54 1.61 1.64 1.68 1.77 1.80 1.72 1.76 1.79 1.83 1.92 1.98 1.92 1.87 1.83 1.68 1.62
2.21 2.09 1.97 1.52 0.87 0.76 0.78 0.94 0.88 0.94 1.02 1.22 1.28 1.31 1.32 1.27 1.51 1.61 1.72 1.99 2.01 1.80 1.69 1.75 1.77 1.72 1.71 1.67 1.59 1.53 1.52 1.52 1.52 1.60 1.63 1.58 1.61 1.82 1.84 1.76 1.79 1.93 1.92 1.98 2.01 1.90 1.83 1.71 1.61
2.26 2.16 1.49 1.11 0.83 0.70 0.75 0.91 0.93 1.02 1.06 1.01 1.08 1.22 1.33 1.32 1.54 1.62 1.83 1.96 2.02 1.90 1.80 1.73 1.70 1.68 1.71 1.67 1.64 1.56 1.58 1.55 1.56 1.60 1.60 1.58 1.62 1.67 1.76 1.78 1.77 1.88 2.00 1.97 2.00 1.93 1.85 1.73 1.60
2.10 1.90 1.60 0.93 0.73 0.84 0.89 1.00 0.96 0.97 1.02 0.97 1.02 1.01 1.31 1.51 1.51 1.65 1.87 1.97 1.99 1.96 1.91 1.92 1.88 1.74 1.74 1.77 1.76 1.69 1.55 1.58 1.58 1.60 1.62 1.65 1.71 1.73 1.80 1.76 1.74 1.85 1.92 1.99 2.04 1.99 1.91 1.84 1.62
2.12 1.64 0.84 0.65 0.87 0.96 1.23 1.15 1.05 0.88 0.98 0.94 0.98 0.96 1.12 1.42 1.64 1.74 1.84 1.92 1.87 1.92 1.85 1.87 1.88 1.85 1.83 1.88 1.84 1.74 1.68 1.63 1.63 1.66 1.66 1.72 1.80 1.90 1.96 1.96 1.93 1.93 2.02 2.00 2.04 2.02 1.99 1.90 1.69
1.29 1.25 0.66 0.55 0.63 0.89 1.18 1.25 1.08 0.92 0.96 0.95 0.86 0.93 1.03 1.40 1.51 1.70 1.74 1.62 1.71 1.59 1.68 1.75 1.79 1.82 1.83 1.79 1.76 1.75 1.73 1.70 1.71 1.73 1.76 1.83 1.99 2.13 2.10 2.08 2.00 2.00 2.03 2.07 2.06 2.04 2.02 1.91 1.78
1.17 0.98 0.67 0.61 0.69 0.76 0.91 1.05 0.88 0.87 0.92 0.91 0.94 0.72 1.04 1.33 1.53 1.73 1.71 1.71 1.74 1.62 1.63 1.74 1.83 1.83 1.87 1.87 1.84 1.86 1.89 1.84 1.90 1.89 1.95 1.97 1.97 2.04 2.09 2.10 2.02 2.08 2.05 2.08 2.08 2.05 2.04 1.96 1.82
1.33 1.14 0.73 0.64 0.55 0.63 0.86 0.93 1.00 0.90 0.84 1.09 0.98 0.71 0.79 1.31 1.53 1.62 1.67 1.69 1.75 1.60 1.56 1.57 1.62 1.75 1.75 1.81 1.85 1.90 1.92 1.90 1.90 1.81 1.81 1.86 1.95 2.00 2.15 2.19 2.15 2.01 2.03 2.00 2.12 2.06 2.04 2.02 1.93
1.39 0.87 0.65 0.67 0.63 0.63 0.85 0.83 0.97 0.99 0.93 1.03 1.09 0.96 1.05 1.31 1.49 1.46 1.50 1.58 1.56 1.53 1.56 1.58 1.60 1.61 1.66 1.71 1.75 1.79 1.80 1.88 1.83 1.87 1.92 2.06 2.08 2.20 2.30 2.30 2.16 2.12 1.99 2.02 2.02 2.08 2.03 2.00 2.00
1.00 0.69 0.68 0.88 0.83 0.73 0.78 0.82 0.86 0.86 0.96 0.97 1.01 1.03 1.15 1.25 1.25 1.23 1.27 1.26 1.39 1.50 1.56 1.73 1.77 1.73 1.76 1.84 1.76 1.73 1.84 1.94 1.94 1.98 1.86 2.10 2.22 2.37 2.43 2.37 2.28 2.10 2.02 1.93 1.94 1.99 2.05 2.01 1.95
0.81 0.74 0.81 0.80 0.86 0.81 0.82 0.92 1.02 0.93 0.85 0.89 0.86 0.91 1.02 1.10 1.13 1.14 1.18 1.23 1.28 1.53 1.66 1.74 1.76 1.78 1.84 1.90 1.90 2.03 2.11 2.15 2.14 2.09 2.16 2.28 2.09 2.10 2.10 1.94 2.07 2.03 1.93 1.84 1.83 1.90 1.93 1.92 2.09
0.75 0.77 0.82 0.92 0.97 0.85 0.86 0.96 0.94 0.94 0.93 1.00 1.00 1.02 1.06 1.05 1.10 1.12 1.20 1.31 1.38 1.53 1.72 1.76 1.81 1.80 1.83 1.95 1.99 2.02 2.01 2.06 2.13 2.12 2.40 2.34 2.17 2.05 1.98 2.06 1.87 1.91 1.98 2.00 1.88 1.85 2.04 1.99 2.08
0.86 0.83 0.88 0.93 0.95 0.95 0.88 0.72 0.77 0.86 1.02 1.07 1.04 0.98 1.03 1.07 1.14 1.21 1.30 1.35 1.41 1.39 1.64 1.72 1.78 1.76 1.79 1.83 1.93 1.96 1.92 2.02 2.11 2.19 2.25 2.27 2.16 1.97 2.01 2.09 2.00 2.22 2.16 2.12 1.90 1.99 2.03 2.10 2.07
1.07 0.88 0.86 0.98 1.07 0.95 0.77 0.78 0.69 0.84 0.95 1.00 1.01 0.96 1.01 1.07 1.15 1.21 1.26 1.33 1.39 1.47 1.56 1.66 1.71 1.72 1.66 1.64 1.74 1.79 1.84 1.94 2.01 2.01 2.11 2.10 2.13 2.05 2.03 2.18 2.11 1.92 1.70 1.73 1.72 1.90 2.04 2.08 2.17
1.33 0.94 1.01 0.88 1.01 0.97 0.96 0.84 0.75 0.80 0.93 0.87 0.91 0.99 1.05 1.12 1.20 1.18 1.27 1.31 1.37 1.45 1.54 1.55 1.60 1.50 1.49 1.52 1.69 1.79 1.79 1.87 1.94 2.02 2.12 2.19 2.20 2.14 2.12 2.07 2.15 1.92 1.79 1.85 1.84 2.03 2.11 2.09 2.11
0.97 0.98 0.96 1.06 0.92 0.95 0.94 0.73 0.83 0.83 0.78 0.83 0.88 0.94 0.97 1.04 1.11 1.17 1.27 1.30 1.34 1.45 1.47 1.50 1.54 1.48 1.45 1.51 1.66 1.77 1.97 1.99 1.98 2.23 2.27 2.24 2.14 2.11 2.13 2.01 1.84 1.98 2.01 2.01 1.83 1.92 2.03 2.10 2.08
0.89 0.80 0.87 0.91 1.03 0.93 0.98 0.77 0.85 0.88 0.77 0.78 0.86 0.92 0.96 1.01 1.04 1.09 1.17 1.23 1.29 1.40 1.48 1.49 1.49 1.50 1.42 1.55 1.70 1.78 2.03 2.00 1.95 2.14 2.18 1.97 2.10 2.16 2.23 2.14 1.86 2.00 2.04 1.77 1.82 1.73 1.87 1.98 2.12
0.60 0.74 0.88 0.82 0.96 0.99 1.04 0.97 0.88 0.86 0.82 0.79 0.86 0.95 1.01 1.05 1.07 1.12 1.16 1.21 1.29 1.42 1.47 1.48 1.53 1.54 1.53 1.60 1.72 1.84 1.78 1.76 1.96 1.70 2.07 2.16 2.11 2.19 2.04 1.82 1.87 2.20 1.90 1.80 1.74 1.55 1.82 2.11 2.20
0.73 0.80 0.83 0.97 0.97 0.78 0.89 1.00 0.89 0.87 0.89 0.87 0.87 0.95 1.02 1.09 1.20 1.22 1.19 1.25 1.34 1.44 1.46 1.41 1.52 1.59 1.61 1.56 1.45 1.43 1.48 1.68 1.79 2.06 2.14 2.16 2.22 2.18 2.07 1.80 1.95 1.93 1.92 1.81 1.74 1.50 1.67 1.92 2.08
0.71 0.69 0.66 0.79 0.75 0.64 0.79 0.89 1.02 0.98 0.87 0.87 0.88 0.94 0.96 1.08 1.17 1.27 1.27 1.36 1.36 1.37 1.44 1.41 1.51 1.62 1.60 1.53 1.35 1.44 1.58 1.88 1.77 2.02 1.98 2.13 2.27 1.97 1.92 2.07 1.98 1.87 1.65 1.75 1.60 1.66 1.57 1.65 1.83
0.66 0.66 0.67 0.63 0.70 0.66 0.71 0.86 1.13 1.02 1.07 1.04 0.93 0.98 1.03 1.02 1.10 1.24 1.30 1.35 1.39 1.35 1.40 1.32 1.45 1.54 1.56 1.49 1.54 1.60 1.66 1.62 1.62 1.34 1.83 1.96 2.17 2.01 1.86 1.87 2.04 1.94 1.75 1.85 1.65 1.67 1.73 1.54 1.64
0.49 0.83 0.80 0.75 0.60 0.43 0.70 0.52 0.90 0.92 0.88 1.02 1.08 0.98 1.02 1.06 1.10 1.17 1.31 1.30 1.39 1.44 1.48 1.50 1.47 1.43 1.45 1.54 1.59 1.49 1.40 1.38 1.48 1.57 1.85 1.99 2.10 2.10 2.00 1.92 1.92 1.85 1.83 1.85 1.68 1.68 1.72 1.72 1.53
0.39 0.71 0.78 0.68 0.55 0.46 0.44 0.52 0.68 0.87 0.78 0.90 1.05 1.02 1.03 1.06 1.10 1.06 1.16 1.27 1.34 1.44 1.49 1.59 1.54 1.51 1.54 1.55 1.62 1.56 1.42 1.43 1.67 1.77 1.79 1.96 2.03 2.09 2.00 1.95 1.87 1.83 1.86 1.83 1.67 1.57 1.60 1.65 1.57
0.35 0.41 0.49 0.49 0.48 0.33 0.35 0.50 0.57 0.69 0.84 0.89 0.96 0.95 0.98 1.08 1.06 1.07 1.14 1.31 1.32 1.46 1.51 1.54 1.59 1.54 1.61 1.58 1.64 1.63 1.53 1.48 1.65 1.72 1.72 1.82 1.86 1.84 1.99 2.00 1.83 1.78 1.77 1.82 1.73 1.55 1.47 1.51 1.51
0.29 0.31 0.31 0.29 0.28 0.31 0.49 0.52 0.58 0.70 0.69 0.73 0.74 0.79 1.00 1.07 1.08 0.98 1.04 1.20 1.32 1.37 1.42 1.47 1.50 1.53 1.58 1.59 1.58 1.59 1.58 1.54 1.66 1.75 1.74 1.76 1.78 1.82 1.80 2.02 1.86 1.70 1.74 1.82 1.77 1.68 1.43 1.39 1.42
0.22 0.25 0.25 0.20 0.22 0.33 0.51 0.39 0.46 0.63 0.76 0.81 0.73 0.70 0.99 1.08 1.05 1.01 1.05 1.22 1.33 1.41 1.46 1.51 1.43 1.46 1.60 1.57 1.57 1.62 1.71 1.65 1.70 1.73 1.74 1.61 1.69 1.88 2.03 2.02 1.88 1.82 1.83 1.77 1.76 1.73 1.67 1.53 1.43
0.15 0.15 0.23 0.25 0.28 0.26 0.34 0.47 0.57 0.65 0.72 0.77 0.82 0.93 1.05 1.01 1.03 1.11 1.13 1.24 1.35 1.41 1.45 1.44 1.43 1.47 1.52 1.52 1.54 1.56 1.61 1.69 1.65 1.67 1.63 1.67 1.80 1.88 1.92 1.74 1.82 1.81 1.90 1.89 1.75 1.61 1.56 1.59 1.53
0.14 0.17 0.16 0.20 0.16 0.17 0.26 0.38 0.40 0.52 0.63 0.76 0.78 0.94 1.06 1.06 0.96 1.13 1.15 1.20 1.28 1.41 1.47 1.52 1.50 1.49 1.50 1.48 1.52 1.62 1.69 1.76 1.75 1.80 1.79 1.75 1.81 1.82 1.75 1.74 1.72 1.80 1.90 1.89 1.80 1.73 1.72 1.56 1.50
0.16 0.12 0.15 0.16 0.18 0.14 0.18 0.29 0.43 0.55 0.58 0.69 0.93 0.95 0.96 1.15 1.02 1.14 1.20 1.24 1.26 1.42 1.52 1.52 1.48 1.55 1.47 1.53 1.58 1.72 1.81 1.98 1.90 1.79 1.83 1.77 1.87 1.91 1.81 1.79 1.80 1.80 1.82 1.84 1.79 1.80 1.80 1.78 1.74
0.20 0.16 0.14 0.14 0.17 0.21 0.22 0.31 0.51 0.55 0.62 0.75 0.78 0.94 0.99 1.11 1.20 1.33 1.35 1.33 1.26 1.36 1.56 1.58 1.48 1.47 1.44 1.54 1.66 1.74 1.85 1.79 1.73 1.82 1.85 1.88 1.73 1.82 1.88 1.89 1.82 1.81 1.84 1.82 1.77 1.76 1.84 1.82 1.79

GFSSGP_prec_pwat_348.txt.gz
Precipitable_Water
2.29 2.27 2.20 1.83 0.87 0.87 0.69 0.76 0.97 0.98 1.13 1.35 1.34 1.29 1.26 1.35 1.18 1.03 1.81 1.85 1.86 1.89 1.83 1.71 1.59 1.51 1.47 1.47 1.49 1.51 1.51 1.54 1.63 1.65 1.64 1.65 1.64 1.66 1.77 1.78 1.84 2.00 2.05 1.85 1.90 1.78 1.70 1.71 1.82
2.29 2.24 1.90 1.42 0.80 0.61 0.67 0.84 0.78 0.88 1.13 1.29 1.33 1.33 1.29 1.26 1.54 1.57 1.65 1.80 1.72 1.69 1.74 1.69 1.63 1.55 1.48 1.50 1.48 1.48 1.49 1.49 1.64 1.64 1.62 1.72 1.74 1.73 1.80 1.80 1.85 1.93 2.01 2.03 1.89 1.83 1.68 1.64 1.81
2.48 2.26 1.46 1.06 0.81 0.63 0.67 0.87 0.85 0.93 1.13 1.13 1.21 1.42 1.36 1.35 1.55 1.62 1.81 1.79 1.61 1.58 1.68 1.73 1.62 1.57 1.57 1.53 1.48 1.47 1.44 1.45 1.56 1.62 1.64 1.64 1.66 1.73 1.87 1.84 1.80 1.93 1.99 1.95 1.91 1.84 1.71 1.66 1.77
2.18 1.82 1.70 1.01 0.77 0.91 0.85 0.91 0.96 0.88 0.99 1.08 1.17 1.17 1.43 1.62 1.57 1.73 1.90 1.88 1.74 1.64 1.69 1.71 1.64 1.63 1.61 1.57 1.53 1.52 1.50 1.50 1.56 1.61 1.64 1.63 1.67 1.70 1.72 1.81 1.81 1.82 1.93 2.02 1.97 1.90 1.79 1.67 1.80
1.94 1.49 0.91 0.90 0.96 1.09 1.01 0.98 1.00 0.81 0.83 0.94 1.03 0.98 1.21 1.57 1.67 1.80 1.81 1.87 1.77 1.79 1.81 1.78 1.73 1.68 1.68 1.69 1.66 1.56 1.55 1.59 1.59 1.63 1.66 1.73 1.81 1.83 1.82 1.88 1.90 1.90 1.95 1.98 1.98 1.91 1.89 1.73 1.73
1.11 1.07 0.66 0.64 0.79 0.98 1.01 1.04 1.04 0.91 0.85 0.87 0.88 0.93 1.12 1.50 1.59 1.76 1.80 1.79 1.83 1.73 1.82 1.83 1.80 1.77 1.80 1.80 1.71 1.70 1.66 1.66 1.68 1.72 1.73 1.86 2.01 2.08 2.06 2.06 2.04 2.02 1.99 2.03 2.05 1.97 1.90 1.81 1.65
1.06 0.91 0.66 0.71 0.81 0.85 0.88 1.01 0.92 0.91 0.83 0.77 0.86 0.78 1.10 1.38 1.58 1.59 1.72 1.74 1.65 1.63 1.66 1.75 1.81 1.85 1.81 1.75 1.74 1.75 1.74 1.73 1.77 1.78 1.92 2.06 2.11 2.12 2.07 2.05 2.01 2.05 2.02 2.04 2.07 2.03 1.91 1.87 1.69
1.19 0.93 0.70 0.65 0.66 0.80 0.96 0.97 1.05 0.90 0.82 0.97 0.93 0.67 0.85 1.30 1.63 1.67 1.71 1.67 1.57 1.60 1.64 1.70 1.76 1.83 1.81 1.86 1.87 1.86 1.85 1.83 1.83 1.81 1.83 1.94 2.03 2.12 2.18 2.17 2.06 1.99 2.03 2.05 2.05 2.07 2.00 1.90 1.72
1.24 0.77 0.58 0.62 0.60 0.77 0.95 0.89 1.06 1.04 0.92 0.96 1.00 0.86 1.11 1.37 1.55 1.52 1.56 1.65 1.51 1.49 1.50 1.58 1.67 1.72 1.72 1.75 1.79 1.84 1.85 1.84 1.90 1.90 1.94 2.03 2.10 2.17 2.27 2.22 2.15 2.01 2.02 2.02 2.08 2.05 2.02 2.02 1.84
0.97 0.73 0.67 0.81 0.84 0.83 0.96 0.89 0.94 0.91 0.85 0.89 0.88 1.05 1.22 1.28 1.36 1.28 1.34 1.41 1.38 1.43 1.48 1.56 1.58 1.61 1.73 1.68 1.75 1.80 1.78 1.85 1.84 1.84 1.97 2.13 2.28 2.40 2.39 2.36 2.21 2.05 1.93 2.00 2.03 2.05 2.05 2.04 1.96
1.02 0.78 0.87 0.87 0.79 0.85 0.87 0.88 0.97 0.88 0.79 0.86 0.80 0.91 1.14 1.19 1.19 1.20 1.26 1.28 1.40 1.45 1.59 1.66 1.69 1.72 1.79 1.81 1.89 2.04 2.04 2.13 2.03 2.08 2.07 2.23 2.18 2.13 2.11 2.03 2.14 2.01 1.85 1.90 1.97 2.03 2.01 2.01 1.94
0.89 0.90 0.95 0.92 0.85 0.83 0.80 0.89 0.88 0.92 0.85 0.98 0.98 0.95 1.02 1.05 1.10 1.14 1.20 1.24 1.32 1.53 1.64 1.72 1.83 1.83 1.90 2.01 2.04 2.03 2.01 2.05 2.10 2.17 2.21 2.24 2.19 2.02 2.14 1.95 1.90 1.91 2.00 1.81 1.76 1.89 1.94 1.93 2.06
0.88 0.87 1.04 1.03 0.97 0.93 0.93 0.84 0.84 0.90 1.04 1.11 1.02 0.95 0.97 1.02 1.09 1.22 1.31 1.40 1.44 1.47 1.72 1.73 1.84 1.86 1.97 1.92 2.02 1.99 1.95 1.94 2.05 2.16 2.14 2.17 2.14 2.04 2.05 2.01 1.99 2.03 2.05 1.77 1.90 1.90 1.95 2.00 2.07
1.01 0.99 1.05 1.10 1.02 1.01 0.87 0.84 0.79 0.91 1.02 1.04 1.02 0.87 0.93 1.04 1.13 1.20 1.27 1.33 1.41 1.46 1.58 1.72 1.79 1.87 1.89 1.81 1.82 1.85 1.86 1.90 1.95 2.02 2.10 2.10 2.15 2.07 2.04 2.13 1.95 1.83 1.64 1.69 1.86 2.03 2.04 2.23 2.15
1.07 0.90 0.98 1.08 1.08 0.95 0.92 0.76 0.76 0.89 0.98 0.91 0.95 0.90 0.99 1.06 1.12 1.11 1.21 1.28 1.37 1.42 1.52 1.54 1.63 1.72 1.67 1.64 1.71 1.76 1.78 1.89 1.93 2.08 2.21 2.24 2.23 2.10 2.05 2.18 1.95 1.86 1.89 1.97 2.08 2.13 2.20 2.14 2.21
0.90 0.96 0.80 1.03 1.05 0.99 0.89 0.62 0.86 0.92 0.89 0.82 0.84 0.86 0.92 1.03 1.11 1.17 1.24 1.27 1.37 1.43 1.42 1.49 1.62 1.62 1.46 1.44 1.65 1.74 1.82 2.04 1.97 2.18 2.20 2.27 2.14 2.07 2.09 2.04 1.87 1.94 2.12 1.89 1.94 2.01 2.12 2.06 2.10
0.86 0.71 0.68 0.85 1.06 1.00 0.99 0.74 0.93 0.97 0.88 0.81 0.82 0.85 0.90 0.94 1.03 1.13 1.22 1.27 1.33 1.42 1.46 1.45 1.53 1.39 1.30 1.34 1.54 1.64 1.88 1.94 1.97 2.08 2.11 1.95 2.03 2.10 2.14 1.94 1.95 1.94 1.83 1.76 1.77 1.83 1.96 2.07 2.17
0.72 0.70 0.78 0.76 0.81 0.94 1.06 0.90 0.91 0.97 0.88 0.80 0.82 0.87 0.88 0.91 0.95 1.07 1.15 1.25 1.27 1.40 1.49 1.48 1.52 1.46 1.39 1.48 1.58 1.78 1.78 1.81 1.86 1.93 2.02 1.85 1.96 2.13 2.00 1.88 1.94 2.14 1.90 1.78 1.76 1.72 1.90 2.14 2.14
0.75 0.76 0.72 0.75 0.80 0.94 0.95 0.89 0.91 0.98 0.93 0.88 0.85 0.86 0.87 0.90 1.00 1.09 1.14 1.19 1.24 1.36 1.44 1.45 1.41 1.47 1.50 1.49 1.47 1.54 1.54 1.62 1.79 2.00 2.03 2.02 2.05 2.06 2.02 1.92 1.91 1.99 1.84 1.78 1.72 1.49 1.77 1.94 2.14
0.70 0.70 0.73 0.83 0.92 0.84 0.88 0.83 0.94 0.98 0.98 0.99 0.97 0.91 0.93 0.94 0.98 1.05 1.14 1.14 1.12 1.23 1.43 1.48 1.44 1.47 1.53 1.57 1.46 1.48 1.55 1.78 1.77 2.16 2.00 2.06 2.01 1.89 1.96 1.91 1.91 1.85 1.69 1.69 1.66 1.63 1.52 1.67 1.91
0.66 0.63 0.68 0.73 0.88 0.95 0.88 0.76 0.84 1.00 1.08 1.08 1.10 1.15 1.08 1.01 0.96 1.06 1.13 1.16 1.13 1.23 1.36 1.44 1.46 1.44 1.53 1.61 1.51 1.56 1.60 1.73 1.77 1.64 1.87 1.98 2.09 1.96 1.93 1.86 1.93 1.82 1.73 1.81 1.63 1.65 1.54 1.45 1.65
0.50 0.64 0.68 0.70 0.77 0.67 0.92 0.51 0.66 0.85 0.94 0.96 1.05 1.10 1.05 1.05 1.03 1.04 1.13 1.17 1.16 1.24 1.41 1.51 1.53 1.42 1.48 1.57 1.46 1.46 1.46 1.43 1.55 1.55 1.78 1.99 2.13 2.10 1.94 1.84 1.89 1.86 1.81 1.82 1.58 1.73 1.69 1.65 1.45
0.36 0.59 0.57 0.66 0.69 0.72 0.63 0.61 0.62 0.75 0.80 0.88 0.94 1.00 1.03 1.03 1.01 1.05 1.07 1.19 1.29 1.38 1.42 1.54 1.59 1.48 1.49 1.47 1.46 1.50 1.50 1.52 1.65 1.78 1.80 1.92 2.03 2.09 1.96 1.96 1.90 1.84 1.80 1.86 1.64 1.53 1.62 1.61 1.53
0.35 0.47 0.51 0.65 0.64 0.50 0.63 0.56 0.50 0.61 0.63 0.79 0.86 0.94 0.96 1.05 1.05 1.05 1.07 1.15 1.28 1.43 1.47 1.51 1.60 1.54 1.48 1.50 1.50 1.55 1.56 1.48 1.49 1.72 1.67 1.82 1.92 2.01 2.06 1.96 1.80 1.84 1.81 1.86 1.75 1.59 1.54 1.59 1.46
0.33 0.37 0.28 0.33 0.39 0.37 0.49 0.47 0.45 0.62 0.73 0.79 0.81 0.90 0.94 1.11 1.06 1.02 1.02 1.07 1.24 1.37 1.45 1.46 1.52 1.51 1.48 1.48 1.51 1.59 1.60 1.62 1.61 1.64 1.68 1.77 1.85 1.87 1.85 2.05 1.87 1.78 1.74 1.81 1.75 1.66 1.51 1.38 1.42
0.22 0.26 0.25 0.25 0.30 0.30 0.51 0.40 0.38 0.59 0.79 0.85 0.78 0.91 0.99 1.07 1.12 1.05 1.07 1.10 1.20 1.39 1.50 1.55 1.44 1.48 1.54 1.53 1.49 1.58 1.72 1.68 1.64 1.69 1.74 1.75 1.72 1.83 1.97 1.98 1.96 1.82 1.78 1.75 1.69 1.68 1.66 1.51 1.41
0.15 0.17 0.25 0.24 0.29 0.25 0.31 0.39 0.45 0.58 0.67 0.74 0.79 0.84 0.89 0.96 1.07 1.05 1.15 1.23 1.20 1.34 1.47 1.54 1.47 1.47 1.46 1.46 1.50 1.49 1.57 1.66 1.61 1.69 1.74 1.73 1.75 1.83 1.96 1.90 1.84 1.80 1.81 1.81 1.75 1.64 1.55 1.58 1.48
0.18 0.16 0.15 0.19 0.17 0.16 0.25 0.32 0.33 0.43 0.50 0.63 0.69 0.78 0.86 1.03 1.15 1.16 1.18 1.26 1.28 1.35 1.46 1.62 1.57 1.45 1.38 1.48 1.53 1.58 1.63 1.68 1.73 1.67 1.65 1.65 1.66 1.75 1.84 1.82 1.77 1.74 1.77 1.82 1.84 1.80 1.79 1.67 1.62
0.17 0.15 0.14 0.17 0.16 0.12 0.14 0.21 0.34 0.43 0.53 0.56 0.65 0.78 0.89 0.97 1.05 1.14 1.28 1.39 1.31 1.36 1.53 1.58 1.55 1.52 1.41 1.44 1.53 1.64 1.70 1.85 1.87 1.65 1.68 1.78 1.83 1.76 1.70 1.70 1.70 1.72 1.74 1.80 1.85 1.87 1.91 1.85 1.84
0.20 0.18 0.15 0.13 0.12 0.16 0.18 0.19 0.38 0.48 0.53 0.58 0.62 0.74 0.89 1.04 0.82 1.08 1.24 1.44 1.38 1.42 1.78 1.37 1.69 1.50 1.44 1.48 1.55 1.62 1.70 1.77 1.74 1.71 1.69 1.76 1.76 1.81 1.81 1.82 1.79 1.80 1.81 1.89 1.88 1.84 1.88 1.85 1.82